カタログに戻る

FENGYUN 1C DEB

運用中SSO
NORAD 30183·DEBRIS·🇨🇳 China

打ち上げ May 10, 1999 から Taiyuan Satellite Launch Center

Loading…

次のパス (今後24時間)

TLE

最新Source: Space-Track

元期: Sep 14, 2026, 09:19 UTC

1 30183U 99025UQ  26257.38862889  .00000521  00000-0  30102-3 0  9991
2 30183  98.7597 299.0741 0026556 188.4222 185.2130 14.13123252 10303

AllMySatでFENGYUN 1C DEBをリアルタイム追跡

Download on the App Store